Location: Sternwarte ZA, Rosenfeld-Brittheim
(48.2889°N, 8.6789°E)
Time: 23:16:17
(UTC+01:00)

ISS - Pass Details

Date: 12 November 2018
Orbit: 402 x 409 km, 51.6° (Epoch: 14 November)

Event Time Altitude Azimuth Distance (km) Brightness Sun altitude
Exits shadow 05:51:42 34° 242° (WSW) 682 -3.1 -16.0°
Maximum altitude 05:52:19 38° 213° (SSW) 629 -3.1 -15.9°
Drops below altitude 10° 05:55:23 10° 143° (SE) 1,459 -0.3 -15.4°
Sets 05:57:32 0° 135° (SE) 2,317 1.0 -15.0°
